Time,TemperatureF,DewpointF,PressureIn,WindDirection,WindDirectionDegrees,WindSpeedMPH,WindSpeedGustMPH,Humidity,HourlyPrecipIn,Conditions,Clouds,dailyrainin,SoftwareType,DateUTC
2013-09-19 00:01:00,47.7,47.1,30.22,WSW,253,0.0,0.0,98,0.00,,CLR,0.00,VWS V14.01,2013-09-19 04:01:00,
2013-09-19 00:02:00,47.7,47.1,30.22,WSW,253,0.0,0.0,98,0.00,,CLR,0.00,VWS V14.01,2013-09-19 04:02:00,
2013-09-19 00:03:00,47.7,47.1,30.22,WSW,253,0.0,0.0,98,0.00,,CLR,0.00,VWS V14.01,2013-09-19 04:03:00,
2013-09-19 00:07:00,47.6,47.0,30.22,WSW,253,0.0,0.0,98,0.00,,CLR,0.00,VWS V14.01,2013-09-19 04:07:00,
2013-09-19 00:10:00,47.6,47.0,30.22,WSW,253,0.0,0.0,98,0.00,,CLR,0.00,VWS V14.01,2013-09-19 04:10:00,
2013-09-19 00:15:00,47.5,46.9,30.22,WSW,253,0.0,0.0,98,0.00,,CLR,0.00,VWS V14.01,2013-09-19 04:15:00,
2013-09-19 00:20:00,47.5,47.0,30.22,WSW,253,0.0,0.0,98,0.00,,CLR,0.00,VWS V14.01,2013-09-19 04:20:00,
2013-09-19 00:25:00,47.5,47.0,30.21,WSW,253,0.0,0.0,98,0.00,,CLR,0.00,VWS V14.01,2013-09-19 04:25:00,
2013-09-19 00:30:00,47.4,46.9,30.21,WSW,253,0.0,0.0,98,0.00,,CLR,0.00,VWS V14.01,2013-09-19 04:30:00,
2013-09-19 00:35:00,47.3,46.8,30.22,WSW,253,0.0,0.0,98,0.00,,CLR,0.00,VWS V14.01,2013-09-19 04:35:00,
2013-09-19 00:40:00,47.3,46.8,30.22,WSW,253,0.0,0.0,98,0.00,,CLR,0.00,VWS V14.01,2013-09-19 04:40:00,
2013-09-19 00:45:00,47.2,46.7,30.21,WSW,253,0.0,0.0,98,0.00,,CLR,0.00,VWS V14.01,2013-09-19 04:45:00,
2013-09-19 00:50:00,47.1,46.7,30.21,WSW,253,0.0,0.0,98,0.00,,CLR,0.00,VWS V14.01,2013-09-19 04:50:00,
2013-09-19 00:55:00,47.1,46.7,30.21,WSW,253,0.0,0.0,98,0.00,,CLR,0.00,VWS V14.01,2013-09-19 04:55:00,
2013-09-19 01:00:00,47.1,46.7,30.22,WSW,253,0.0,0.0,98,0.00,,CLR,0.00,VWS V14.01,2013-09-19 05:00:00,
2013-09-19 01:05:00,47.1,46.7,30.21,WSW,253,0.0,0.0,98,0.00,,CLR,0.00,VWS V14.01,2013-09-19 05:05:00,
2013-09-19 01:10:00,47.1,46.7,30.22,WSW,253,0.0,0.0,99,0.00,,CLR,0.00,VWS V14.01,2013-09-19 05:10:00,
2013-09-19 01:15:00,47.2,46.8,30.22,WSW,253,0.0,0.0,99,0.00,,CLR,0.00,VWS V14.01,2013-09-19 05:15:00,
2013-09-19 01:20:00,47.1,46.8,30.21,WSW,253,0.0,0.0,99,0.00,,CLR,0.00,VWS V14.01,2013-09-19 05:20:00,
2013-09-19 01:25:00,47.1,46.8,30.22,WSW,253,0.0,0.0,99,0.00,,CLR,0.00,VWS V14.01,2013-09-19 05:25:00,
2013-09-19 01:30:00,47.0,46.7,30.21,WSW,253,0.0,0.0,99,0.00,,CLR,0.00,VWS V14.01,2013-09-19 05:30:00,
2013-09-19 01:35:00,47.1,46.8,30.22,WSW,253,0.0,0.0,99,0.00,,CLR,0.00,VWS V14.01,2013-09-19 05:35:00,
2013-09-19 01:40:00,47.0,46.7,30.22,WSW,253,0.0,0.0,99,0.00,,CLR,0.00,VWS V14.01,2013-09-19 05:40:00,
2013-09-19 01:45:00,47.0,46.7,30.22,WSW,253,0.0,0.0,99,0.00,,CLR,0.00,VWS V14.01,2013-09-19 05:45:00,
2013-09-19 01:50:00,47.0,46.8,30.22,WSW,253,0.0,0.0,99,0.00,,CLR,0.00,VWS V14.01,2013-09-19 05:50:00,
2013-09-19 01:55:00,47.0,46.8,30.22,WSW,253,0.0,0.0,99,0.00,,CLR,0.00,VWS V14.01,2013-09-19 05:55:00,
2013-09-19 02:00:00,47.0,46.8,30.22,WSW,253,0.0,0.0,99,0.00,,CLR,0.00,VWS V14.01,2013-09-19 06:00:00,
2013-09-19 02:05:00,46.9,46.7,30.22,WSW,253,0.0,0.0,99,0.00,,CLR,0.00,VWS V14.01,2013-09-19 06:05:00,
2013-09-19 02:10:00,46.8,46.6,30.22,WSW,253,0.0,0.0,99,0.00,,CLR,0.00,VWS V14.01,2013-09-19 06:10:00,
2013-09-19 02:16:00,46.9,46.8,30.22,WSW,253,0.0,0.0,100,0.00,,CLR,0.00,VWS V14.01,2013-09-19 06:16:00,
2013-09-19 02:21:00,46.8,46.7,30.21,WSW,253,0.0,0.0,100,0.00,,CLR,0.00,VWS V14.01,2013-09-19 06:21:00,
2013-09-19 02:26:00,46.8,46.7,30.21,WSW,253,0.0,0.0,100,0.00,,CLR,0.00,VWS V14.01,2013-09-19 06:26:00,
2013-09-19 02:31:00,46.7,46.6,30.20,WSW,253,0.0,0.0,100,0.00,,CLR,0.00,VWS V14.01,2013-09-19 06:31:00,
2013-09-19 02:36:00,46.6,46.5,30.20,WSW,253,0.0,0.0,100,0.00,,CLR,0.00,VWS V14.01,2013-09-19 06:36:00,
2013-09-19 02:41:00,46.6,46.5,30.20,WSW,253,0.0,0.0,100,0.00,,CLR,0.00,VWS V14.01,2013-09-19 06:41:00,
2013-09-19 02:46:00,46.5,46.5,30.20,WSW,253,0.0,0.0,100,0.00,,CLR,0.00,VWS V14.01,2013-09-19 06:46:00,
2013-09-19 02:51:00,46.4,46.4,30.20,WSW,253,0.0,0.0,100,0.00,,CLR,0.00,VWS V14.01,2013-09-19 06:51:00,
2013-09-19 02:56:00,46.4,46.4,30.20,WSW,253,0.0,0.0,100,0.00,,CLR,0.00,VWS V14.01,2013-09-19 06:56:00,
2013-09-19 03:01:00,46.5,46.5,30.20,WSW,253,0.0,0.0,100,0.00,,CLR,0.00,VWS V14.01,2013-09-19 07:01:00,
2013-09-19 03:06:00,46.4,46.4,30.20,WSW,253,0.0,0.0,100,0.00,,CLR,0.00,VWS V14.01,2013-09-19 07:06:00,
2013-09-19 03:11:00,46.4,46.4,30.19,WSW,253,0.0,0.0,100,0.00,,CLR,0.00,VWS V14.01,2013-09-19 07:11:00,
2013-09-19 03:16:00,46.4,46.4,30.19,WSW,253,0.0,0.0,100,0.00,,CLR,0.00,VWS V14.01,2013-09-19 07:16:00,
2013-09-19 03:21:00,46.4,46.4,30.20,WSW,253,0.0,0.0,100,0.00,,CLR,0.00,VWS V14.01,2013-09-19 07:21:00,
2013-09-19 03:26:00,46.4,46.4,30.20,WSW,253,0.0,0.0,100,0.00,,CLR,0.00,VWS V14.01,2013-09-19 07:26:00,
2013-09-19 03:31:00,46.4,46.4,30.19,WSW,253,0.0,0.0,100,0.00,,CLR,0.00,VWS V14.01,2013-09-19 07:31:00,
2013-09-19 03:36:00,46.3,46.3,30.18,WSW,253,0.0,0.0,100,0.00,,CLR,0.00,VWS V14.01,2013-09-19 07:36:00,
2013-09-19 03:41:00,46.3,46.3,30.19,WSW,253,0.0,0.0,100,0.00,,CLR,0.00,VWS V14.01,2013-09-19 07:41:00,
2013-09-19 03:46:00,46.4,46.4,30.19,WSW,253,0.0,0.0,100,0.00,,CLR,0.00,VWS V14.01,2013-09-19 07:46:00,
2013-09-19 03:51:00,46.4,46.4,30.19,WSW,253,0.0,0.0,100,0.00,,CLR,0.00,VWS V14.01,2013-09-19 07:51:00,
2013-09-19 03:56:00,46.5,46.5,30.19,WSW,253,0.0,0.0,100,0.00,,CLR,0.00,VWS V14.01,2013-09-19 07:56:00,
2013-09-19 04:01:00,46.6,46.6,30.18,WSW,253,0.0,0.0,100,0.00,,CLR,0.00,VWS V14.01,2013-09-19 08:01:00,
2013-09-19 04:06:00,46.6,46.6,30.18,WSW,253,0.0,0.0,100,0.00,,CLR,0.00,VWS V14.01,2013-09-19 08:06:00,
2013-09-19 04:12:00,46.7,46.7,30.19,WSW,253,0.0,0.0,100,0.00,,CLR,0.00,VWS V14.01,2013-09-19 08:12:00,
2013-09-19 04:17:00,46.8,46.8,30.19,WSW,253,0.0,0.0,100,0.00,,CLR,0.00,VWS V14.01,2013-09-19 08:17:00,
2013-09-19 04:22:00,46.8,46.8,30.19,WSW,253,0.0,0.0,100,0.00,,CLR,0.00,VWS V14.01,2013-09-19 08:22:00,
2013-09-19 04:27:00,46.8,46.8,30.18,WSW,253,0.0,0.0,100,0.00,,CLR,0.00,VWS V14.01,2013-09-19 08:27:00,
2013-09-19 04:32:00,46.9,46.9,30.19,WSW,253,0.0,0.0,100,0.00,,CLR,0.00,VWS V14.01,2013-09-19 08:32:00,
2013-09-19 04:37:00,46.9,46.9,30.19,WSW,253,0.0,0.0,100,0.00,,CLR,0.00,VWS V14.01,2013-09-19 08:37:00,
2013-09-19 04:42:00,46.9,46.9,30.19,WSW,253,0.0,0.0,100,0.00,,CLR,0.00,VWS V14.01,2013-09-19 08:42:00,
2013-09-19 04:47:00,47.0,47.0,30.18,WSW,253,0.0,0.0,100,0.00,,CLR,0.00,VWS V14.01,2013-09-19 08:47:00,
2013-09-19 04:52:00,46.9,46.9,30.18,WSW,253,0.0,0.0,100,0.00,,CLR,0.00,VWS V14.01,2013-09-19 08:52:00,
2013-09-19 04:57:00,46.9,46.9,30.18,WSW,253,0.0,0.0,100,0.00,,CLR,0.00,VWS V14.01,2013-09-19 08:57:00,
2013-09-19 05:02:00,46.9,46.9,30.19,WSW,253,0.0,0.0,100,0.00,,BKN001,0.00,VWS V14.01,2013-09-19 09:02:00,
2013-09-19 05:07:00,47.0,47.0,30.19,WSW,253,0.0,0.0,100,0.00,,BKN001,0.00,VWS V14.01,2013-09-19 09:07:00,
2013-09-19 05:12:00,47.0,47.0,30.18,WSW,253,0.0,0.0,100,0.00,,BKN001,0.00,VWS V14.01,2013-09-19 09:12:00,
2013-09-19 05:17:00,46.9,46.9,30.18,WSW,253,0.0,0.0,100,0.00,,BKN001,0.00,VWS V14.01,2013-09-19 09:17:00,
2013-09-19 05:22:00,46.9,46.9,30.18,WSW,253,0.0,0.0,100,0.00,,BKN001,0.00,VWS V14.01,2013-09-19 09:22:00,
2013-09-19 05:27:00,46.9,46.9,30.19,WSW,253,0.0,0.0,100,0.00,,BKN001,0.00,VWS V14.01,2013-09-19 09:27:00,
2013-09-19 05:32:00,47.0,47.0,30.19,WSW,253,0.0,0.0,100,0.00,,BKN001,0.00,VWS V14.01,2013-09-19 09:32:00,
2013-09-19 05:37:00,47.0,47.0,30.18,WSW,253,0.0,0.0,100,0.00,,BKN001,0.00,VWS V14.01,2013-09-19 09:37:00,
2013-09-19 05:42:00,46.9,46.9,30.18,WSW,253,0.0,0.0,100,0.00,,BKN001,0.00,VWS V14.01,2013-09-19 09:42:00,
2013-09-19 05:47:00,46.9,46.9,30.18,WSW,253,0.0,0.0,100,0.00,,BKN001,0.00,VWS V14.01,2013-09-19 09:47:00,
2013-09-19 05:52:00,46.9,46.9,30.19,WSW,253,0.0,0.0,100,0.00,,BKN001,0.00,VWS V14.01,2013-09-19 09:52:00,
2013-09-19 05:57:00,46.9,46.9,30.19,WSW,253,0.0,0.0,100,0.00,,BKN001,0.00,VWS V14.01,2013-09-19 09:57:00,
2013-09-19 06:02:00,46.9,46.9,30.19,WSW,253,0.0,0.0,100,0.00,,,0.00,VWS V14.01,2013-09-19 10:02:00,
2013-09-19 06:07:00,47.0,47.0,30.18,WSW,253,0.0,0.0,100,0.00,,,0.00,VWS V14.01,2013-09-19 10:07:00,
2013-09-19 06:12:00,47.1,47.1,30.18,WSW,253,0.0,0.0,100,0.00,,,0.00,VWS V14.01,2013-09-19 10:12:00,
2013-09-19 06:17:00,47.2,47.2,30.19,WSW,253,0.0,0.0,100,0.00,,,0.00,VWS V14.01,2013-09-19 10:17:00,
2013-09-19 06:23:00,47.2,47.2,30.19,WSW,253,0.0,0.0,100,0.00,,,0.00,VWS V14.01,2013-09-19 10:23:00,
2013-09-19 06:28:00,47.2,47.2,30.19,WSW,253,0.0,0.0,100,0.00,,,0.00,VWS V14.01,2013-09-19 10:28:00,
2013-09-19 06:33:00,47.2,47.2,30.18,WSW,253,0.0,0.0,100,0.00,,,0.00,VWS V14.01,2013-09-19 10:33:00,
2013-09-19 06:38:00,47.0,47.0,30.18,WSW,253,0.0,0.0,100,0.00,,,0.00,VWS V14.01,2013-09-19 10:38:00,
2013-09-19 06:43:00,46.9,46.9,30.19,WSW,253,0.0,0.0,100,0.00,,,0.00,VWS V14.01,2013-09-19 10:43:00,
2013-09-19 06:48:00,46.9,46.9,30.19,WSW,253,0.0,0.0,100,0.00,,,0.00,VWS V14.01,2013-09-19 10:48:00,
2013-09-19 06:53:00,46.9,46.9,30.19,WSW,253,0.0,0.0,100,0.00,,,0.00,VWS V14.01,2013-09-19 10:53:00,
2013-09-19 06:58:00,46.7,46.7,30.19,WSW,253,0.0,0.0,100,0.00,,,0.00,VWS V14.01,2013-09-19 10:58:00,
2013-09-19 07:03:00,46.7,46.7,30.20,WSW,253,0.0,0.0,100,0.00,,,0.00,VWS V14.01,2013-09-19 11:03:00,
2013-09-19 07:08:00,46.6,46.6,30.20,WSW,253,0.0,0.0,100,0.00,,,0.00,VWS V14.01,2013-09-19 11:08:00,
2013-09-19 07:13:00,46.7,46.7,30.20,WSW,253,0.0,0.0,100,0.00,,,0.00,VWS V14.01,2013-09-19 11:13:00,
2013-09-19 07:18:00,46.8,46.8,30.19,WSW,253,0.0,0.0,100,0.00,,,0.00,VWS V14.01,2013-09-19 11:18:00,
2013-09-19 07:23:00,46.8,46.8,30.19,WSW,253,0.0,0.0,100,0.00,,,0.00,VWS V14.01,2013-09-19 11:23:00,
2013-09-19 07:28:00,46.8,46.8,30.19,WSW,253,0.0,0.0,100,0.00,,,0.00,VWS V14.01,2013-09-19 11:28:00,
2013-09-19 07:33:00,46.9,46.9,30.20,WSW,253,0.0,0.0,100,0.00,,,0.00,VWS V14.01,2013-09-19 11:33:00,
2013-09-19 07:38:00,47.0,47.0,30.19,WSW,253,0.0,0.0,100,0.00,,,0.00,VWS V14.01,2013-09-19 11:38:00,
2013-09-19 07:43:00,47.2,47.2,30.19,WSW,253,0.0,0.0,100,0.00,,,0.00,VWS V14.01,2013-09-19 11:43:00,
2013-09-19 07:48:00,47.3,47.3,30.18,WSW,253,0.0,0.0,100,0.00,,,0.00,VWS V14.01,2013-09-19 11:48:00,
2013-09-19 07:53:00,47.5,47.5,30.20,WSW,253,0.0,0.0,100,0.00,,,0.00,VWS V14.01,2013-09-19 11:53:00,
2013-09-19 07:58:00,47.8,47.8,30.19,WSW,253,0.0,0.0,100,0.00,,,0.00,VWS V14.01,2013-09-19 11:58:00,
2013-09-19 08:03:00,48.0,48.0,30.19,WSW,253,0.0,0.0,100,0.00,,,0.00,VWS V14.01,2013-09-19 12:03:00,
2013-09-19 08:08:00,48.2,48.2,30.19,WSW,253,0.0,0.0,100,0.00,,,0.00,VWS V14.01,2013-09-19 12:08:00,
2013-09-19 08:13:00,48.5,48.5,30.20,WSW,253,0.0,0.0,100,0.00,,,0.00,VWS V14.01,2013-09-19 12:13:00,
2013-09-19 08:18:00,48.8,48.8,30.20,WSW,253,0.0,0.0,100,0.00,,,0.00,VWS V14.01,2013-09-19 12:18:00,
2013-09-19 08:23:00,49.0,49.0,30.19,WSW,253,0.0,0.0,100,0.00,,,0.00,VWS V14.01,2013-09-19 12:23:00,
2013-09-19 08:28:00,49.4,49.4,30.19,WSW,253,0.0,0.0,100,0.00,,,0.00,VWS V14.01,2013-09-19 12:28:00,
2013-09-19 08:34:00,50.1,50.1,30.19,WSW,253,0.0,0.0,100,0.00,,,0.00,VWS V14.01,2013-09-19 12:34:00,
2013-09-19 08:39:00,50.7,50.7,30.19,WSW,253,0.0,0.0,100,0.00,,,0.00,VWS V14.01,2013-09-19 12:39:00,
2013-09-19 08:44:00,51.2,51.2,30.19,WSW,253,0.0,0.0,100,0.00,,,0.00,VWS V14.01,2013-09-19 12:44:00,
2013-09-19 08:49:00,51.6,51.6,30.19,WSW,253,0.0,0.0,100,0.00,,,0.00,VWS V14.01,2013-09-19 12:49:00,
2013-09-19 08:54:00,52.0,52.0,30.18,WSW,253,0.0,0.0,100,0.00,,,0.00,VWS V14.01,2013-09-19 12:54:00,
2013-09-19 08:59:00,52.4,52.4,30.19,WSW,253,0.0,0.0,100,0.00,,,0.00,VWS V14.01,2013-09-19 12:59:00,
2013-09-19 09:04:00,52.8,52.8,30.19,WSW,253,0.0,0.0,100,0.00,,CLR,0.00,VWS V14.01,2013-09-19 13:04:00,
2013-09-19 09:09:00,53.2,53.2,30.19,WSW,253,0.0,0.0,100,0.00,,CLR,0.00,VWS V14.01,2013-09-19 13:09:00,
2013-09-19 09:14:00,53.5,53.5,30.18,WSW,253,0.0,0.0,100,0.00,,CLR,0.00,VWS V14.01,2013-09-19 13:14:00,
2013-09-19 09:19:00,53.8,53.8,30.18,WSW,253,0.0,0.0,100,0.00,,CLR,0.00,VWS V14.01,2013-09-19 13:19:00,
2013-09-19 09:24:00,54.2,54.2,30.19,WSW,253,0.0,0.0,100,0.00,,CLR,0.00,VWS V14.01,2013-09-19 13:24:00,
2013-09-19 09:29:00,54.6,54.6,30.19,WSW,253,0.0,0.0,100,0.00,,CLR,0.00,VWS V14.01,2013-09-19 13:29:00,
2013-09-19 09:34:00,55.1,55.1,30.19,WSW,253,0.0,0.0,100,0.00,,CLR,0.00,VWS V14.01,2013-09-19 13:34:00,
2013-09-19 09:39:00,55.3,55.3,30.19,WSW,253,0.0,0.0,100,0.00,,CLR,0.00,VWS V14.01,2013-09-19 13:39:00,
2013-09-19 09:44:00,55.8,55.8,30.19,WSW,253,0.0,0.0,100,0.00,,CLR,0.00,VWS V14.01,2013-09-19 13:44:00,
2013-09-19 09:49:00,56.2,56.2,30.19,WSW,253,0.0,0.0,100,0.00,,CLR,0.00,VWS V14.01,2013-09-19 13:49:00,
2013-09-19 09:54:00,56.9,56.8,30.20,WSW,253,0.0,0.0,100,0.00,,CLR,0.00,VWS V14.01,2013-09-19 13:54:00,
2013-09-19 09:59:00,57.5,57.0,30.20,WSW,253,0.0,0.0,98,0.00,,CLR,0.00,VWS V14.01,2013-09-19 13:59:00,
2013-09-19 10:04:00,58.2,57.1,30.19,WSW,253,0.0,0.0,96,0.00,,CLR,0.00,VWS V14.01,2013-09-19 14:04:00,
2013-09-19 10:09:00,59.1,57.6,30.19,WSW,253,0.0,0.0,95,0.00,,CLR,0.00,VWS V14.01,2013-09-19 14:09:00,
2013-09-19 10:14:00,59.5,57.5,30.19,WSW,253,0.0,0.0,93,0.00,,CLR,0.00,VWS V14.01,2013-09-19 14:14:00,
2013-09-19 10:19:00,59.9,57.5,30.19,WSW,253,0.0,0.0,92,0.00,,CLR,0.00,VWS V14.01,2013-09-19 14:19:00,
2013-09-19 10:24:00,60.4,57.5,30.19,WSW,253,0.0,0.0,90,0.00,,CLR,0.00,VWS V14.01,2013-09-19 14:24:00,
2013-09-19 10:30:00,60.8,57.1,30.19,WSW,253,0.0,0.0,88,0.00,,CLR,0.00,VWS V14.01,2013-09-19 14:30:00,
2013-09-19 10:35:00,61.1,56.8,30.19,WSW,253,0.0,0.0,86,0.00,,CLR,0.00,VWS V14.01,2013-09-19 14:35:00,
2013-09-19 10:40:00,61.4,57.0,30.19,WSW,253,0.0,0.0,86,0.00,,CLR,0.00,VWS V14.01,2013-09-19 14:40:00,
2013-09-19 10:45:00,61.5,57.2,30.19,WSW,253,0.0,0.0,86,0.00,,CLR,0.00,VWS V14.01,2013-09-19 14:45:00,
2013-09-19 10:50:00,61.6,57.1,30.19,WSW,253,0.0,0.0,85,0.00,,CLR,0.00,VWS V14.01,2013-09-19 14:50:00,
2013-09-19 10:55:00,62.0,56.5,30.19,SSE,162,0.0,5.1,82,0.00,,CLR,0.00,VWS V14.01,2013-09-19 14:55:00,
2013-09-19 11:00:00,62.6,56.0,30.19,SSE,162,0.0,5.1,79,0.00,,CLR,0.00,VWS V14.01,2013-09-19 15:00:00,
2013-09-19 11:05:00,63.3,56.9,30.18,SSE,162,0.0,0.0,80,0.00,,CLR,0.00,VWS V14.01,2013-09-19 15:05:00,
2013-09-19 11:10:00,63.6,56.9,30.18,SSE,162,0.0,0.0,79,0.00,,CLR,0.00,VWS V14.01,2013-09-19 15:10:00,
2013-09-19 11:16:00,63.8,57.6,30.18,SSE,162,0.0,0.0,80,0.00,,CLR,0.00,VWS V14.01,2013-09-19 15:16:00,
2013-09-19 11:21:00,63.7,56.2,30.18,SSE,162,0.0,0.0,77,0.00,,CLR,0.00,VWS V14.01,2013-09-19 15:21:00,
2013-09-19 11:26:00,64.5,56.0,30.18,SSE,162,0.0,0.0,74,0.00,,CLR,0.00,VWS V14.01,2013-09-19 15:26:00,
2013-09-19 11:31:00,64.9,55.3,30.18,SSE,162,0.0,0.0,71,0.00,,CLR,0.00,VWS V14.01,2013-09-19 15:31:00,
2013-09-19 11:36:00,65.4,56.6,30.18,SSE,162,0.0,0.0,73,0.00,,CLR,0.00,VWS V14.01,2013-09-19 15:36:00,
2013-09-19 11:41:00,65.7,55.3,30.17,SSE,162,0.0,0.0,69,0.00,,CLR,0.00,VWS V14.01,2013-09-19 15:41:00,
2013-09-19 11:46:00,66.1,56.6,30.17,SSE,162,0.0,0.0,72,0.00,,CLR,0.00,VWS V14.01,2013-09-19 15:46:00,
2013-09-19 11:51:00,66.0,54.8,30.17,SSE,162,0.0,0.0,67,0.00,,CLR,0.00,VWS V14.01,2013-09-19 15:51:00,
2013-09-19 11:56:00,66.0,56.5,30.17,SSE,162,0.0,0.0,71,0.00,,CLR,0.00,VWS V14.01,2013-09-19 15:56:00,
2013-09-19 12:01:00,66.0,55.6,30.17,SSE,162,0.0,0.0,69,0.00,,CLR,0.00,VWS V14.01,2013-09-19 16:01:00,
2013-09-19 12:06:00,66.1,54.4,30.17,SSE,162,0.0,0.0,66,0.00,,CLR,0.00,VWS V14.01,2013-09-19 16:06:00,
2013-09-19 12:11:00,66.4,53.3,30.17,SSE,162,0.0,0.0,63,0.00,,CLR,0.00,VWS V14.01,2013-09-19 16:11:00,
2013-09-19 12:16:00,66.9,52.4,30.17,SSE,162,0.0,0.0,60,0.00,,CLR,0.00,VWS V14.01,2013-09-19 16:16:00,
2013-09-19 12:21:00,67.2,53.5,30.17,SSE,162,0.0,0.0,61,0.00,,CLR,0.00,VWS V14.01,2013-09-19 16:21:00,
2013-09-19 12:26:00,67.7,54.5,30.17,SSE,162,0.0,0.0,63,0.00,,CLR,0.00,VWS V14.01,2013-09-19 16:26:00,
2013-09-19 12:31:00,67.8,52.2,30.16,SSE,162,0.0,0.0,57,0.00,,CLR,0.00,VWS V14.01,2013-09-19 16:31:00,
2013-09-19 12:36:00,68.1,53.8,30.16,SSE,162,0.0,0.0,60,0.00,,CLR,0.00,VWS V14.01,2013-09-19 16:36:00,
2013-09-19 12:41:00,68.3,54.7,30.16,SSE,162,0.0,0.0,62,0.00,,CLR,0.00,VWS V14.01,2013-09-19 16:41:00,
2013-09-19 12:46:00,68.1,52.8,30.16,SSE,162,0.0,0.0,58,0.00,,CLR,0.00,VWS V14.01,2013-09-19 16:46:00,
2013-09-19 12:51:00,68.4,54.1,30.16,SW,231,0.0,0.0,60,0.00,,CLR,0.00,VWS V14.01,2013-09-19 16:51:00,
2013-09-19 12:56:00,68.3,53.5,30.16,SW,231,0.0,0.0,59,0.00,,CLR,0.00,VWS V14.01,2013-09-19 16:56:00,
2013-09-19 13:01:00,68.4,49.7,30.16,WSW,246,0.0,6.0,51,0.00,,CLR,0.00,VWS V14.01,2013-09-19 17:01:00,
2013-09-19 13:06:00,69.1,49.9,30.15,WSW,246,0.0,6.0,50,0.00,,CLR,0.00,VWS V14.01,2013-09-19 17:06:00,
2013-09-19 13:11:00,69.3,49.9,30.15,WSW,246,0.0,0.0,50,0.00,,CLR,0.00,VWS V14.01,2013-09-19 17:11:00,
2013-09-19 13:17:00,69.5,49.8,30.15,WSW,246,0.0,0.0,50,0.00,,CLR,0.00,VWS V14.01,2013-09-19 17:17:00,
2013-09-19 13:22:00,69.9,48.3,30.15,WSW,246,0.0,0.0,46,0.00,,CLR,0.00,VWS V14.01,2013-09-19 17:22:00,
2013-09-19 13:27:00,70.5,50.9,30.15,WSW,246,0.0,0.0,50,0.00,,CLR,0.00,VWS V14.01,2013-09-19 17:27:00,
2013-09-19 13:32:00,70.5,48.2,30.15,WSW,246,0.0,0.0,45,0.00,,CLR,0.00,VWS V14.01,2013-09-19 17:32:00,
2013-09-19 13:37:00,70.8,47.8,30.15,WSW,246,0.0,0.0,44,0.00,,CLR,0.00,VWS V14.01,2013-09-19 17:37:00,
2013-09-19 13:42:00,71.2,49.5,30.15,WSW,246,0.0,0.0,46,0.00,,CLR,0.00,VWS V14.01,2013-09-19 17:42:00,
2013-09-19 13:47:00,71.4,48.4,30.15,WSW,246,0.0,0.0,44,0.00,,CLR,0.00,VWS V14.01,2013-09-19 17:47:00,
2013-09-19 13:52:00,71.2,52.4,30.15,WSW,246,0.0,0.0,52,0.00,,CLR,0.00,VWS V14.01,2013-09-19 17:52:00,
2013-09-19 13:57:00,71.4,48.4,30.14,WSW,246,0.0,0.0,44,0.00,,CLR,0.00,VWS V14.01,2013-09-19 17:57:00,
2013-09-19 14:02:00,71.5,53.2,30.14,WSW,246,0.0,0.0,52,0.00,,CLR,0.00,VWS V14.01,2013-09-19 18:02:00,
2013-09-19 14:07:00,71.5,53.6,30.14,WSW,246,0.0,0.0,53,0.00,,CLR,0.00,VWS V14.01,2013-09-19 18:07:00,
2013-09-19 14:12:00,71.6,54.8,30.14,WSW,246,0.0,0.0,56,0.00,,CLR,0.00,VWS V14.01,2013-09-19 18:12:00,
2013-09-19 14:17:00,71.9,56.5,30.13,WSW,246,0.0,0.0,58,0.00,,CLR,0.00,VWS V14.01,2013-09-19 18:17:00,
2013-09-19 14:22:00,72.3,53.8,30.13,WSW,246,0.0,0.0,52,0.00,,CLR,0.00,VWS V14.01,2013-09-19 18:22:00,
2013-09-19 14:27:00,73.1,51.8,30.13,WSW,246,0.0,0.0,47,0.00,,CLR,0.00,VWS V14.01,2013-09-19 18:27:00,
2013-09-19 14:32:00,73.9,54.8,30.13,WSW,246,0.0,0.0,51,0.00,,CLR,0.00,VWS V14.01,2013-09-19 18:32:00,
2013-09-19 14:37:00,74.1,56.4,30.13,WSW,246,0.0,0.0,54,0.00,,CLR,0.00,VWS V14.01,2013-09-19 18:37:00,
2013-09-19 14:42:00,74.1,55.3,30.13,WSW,246,0.0,0.0,52,0.00,,CLR,0.00,VWS V14.01,2013-09-19 18:42:00,
2013-09-19 14:47:00,74.4,56.9,30.12,WSW,246,0.0,0.0,54,0.00,,CLR,0.00,VWS V14.01,2013-09-19 18:47:00,
2013-09-19 14:52:00,74.6,49.8,30.13,WSW,246,0.0,0.0,42,0.00,,CLR,0.00,VWS V14.01,2013-09-19 18:52:00,
2013-09-19 14:57:00,74.8,52.8,30.12,WSW,246,0.0,0.0,46,0.00,,CLR,0.00,VWS V14.01,2013-09-19 18:57:00,
2013-09-19 15:02:00,75.2,51.7,30.12,WSW,246,0.0,0.0,44,0.00,,CLR,0.00,VWS V14.01,2013-09-19 19:02:00,
2013-09-19 15:07:00,75.1,51.2,30.12,WSW,246,0.0,0.0,43,0.00,,CLR,0.00,VWS V14.01,2013-09-19 19:07:00,
2013-09-19 15:12:00,75.0,50.2,30.11,WSW,246,0.0,0.0,42,0.00,,CLR,0.00,VWS V14.01,2013-09-19 19:12:00,
2013-09-19 15:18:00,75.4,56.8,30.11,WSW,246,0.0,0.0,52,0.00,,CLR,0.00,VWS V14.01,2013-09-19 19:18:00,
2013-09-19 15:23:00,75.5,56.1,30.11,WSW,246,0.0,0.0,51,0.00,,CLR,0.00,VWS V14.01,2013-09-19 19:23:00,
2013-09-19 15:28:00,75.4,56.9,30.11,WSW,246,0.0,0.0,53,0.00,,CLR,0.00,VWS V14.01,2013-09-19 19:28:00,
2013-09-19 15:33:00,75.1,53.6,30.12,WSW,246,0.0,0.0,47,0.00,,CLR,0.00,VWS V14.01,2013-09-19 19:33:00,
2013-09-19 15:38:00,75.2,49.6,30.12,WSW,246,0.0,0.0,40,0.00,,CLR,0.00,VWS V14.01,2013-09-19 19:38:00,
2013-09-19 15:43:00,75.6,52.7,30.11,WSW,246,0.0,0.0,45,0.00,,CLR,0.00,VWS V14.01,2013-09-19 19:43:00,
2013-09-19 15:48:00,75.8,50.0,30.11,WSW,246,0.0,0.0,40,0.00,,CLR,0.00,VWS V14.01,2013-09-19 19:48:00,
2013-09-19 15:53:00,75.3,57.1,30.11,WSW,246,0.0,0.0,53,0.00,,CLR,0.00,VWS V14.01,2013-09-19 19:53:00,
2013-09-19 15:58:00,75.0,52.2,30.11,WSW,246,0.0,0.0,45,0.00,,CLR,0.00,VWS V14.01,2013-09-19 19:58:00,
2013-09-19 16:03:00,74.6,56.8,30.11,WSW,246,0.0,0.0,54,0.00,,CLR,0.00,VWS V14.01,2013-09-19 20:03:00,
2013-09-19 16:08:00,74.2,57.4,30.11,WSW,246,0.0,0.0,56,0.00,,CLR,0.00,VWS V14.01,2013-09-19 20:08:00,
2013-09-19 16:13:00,74.4,56.7,30.10,WSW,246,0.0,0.0,54,0.00,,CLR,0.00,VWS V14.01,2013-09-19 20:13:00,
2013-09-19 16:18:00,74.2,58.1,30.10,WSW,246,0.0,0.0,57,0.00,,CLR,0.00,VWS V14.01,2013-09-19 20:18:00,
2013-09-19 16:23:00,74.1,57.6,30.10,WSW,246,0.0,0.0,56,0.00,,CLR,0.00,VWS V14.01,2013-09-19 20:23:00,
2013-09-19 16:28:00,73.5,59.6,30.10,WSW,246,0.0,0.0,62,0.00,,CLR,0.00,VWS V14.01,2013-09-19 20:28:00,
2013-09-19 16:33:00,72.6,59.4,30.10,WSW,246,0.0,0.0,63,0.00,,CLR,0.00,VWS V14.01,2013-09-19 20:33:00,
2013-09-19 16:38:00,71.5,59.9,30.10,WSW,246,0.0,0.0,67,0.00,,CLR,0.00,VWS V14.01,2013-09-19 20:38:00,
2013-09-19 16:44:00,70.2,58.8,30.10,WSW,246,0.0,0.0,67,0.00,,CLR,0.00,VWS V14.01,2013-09-19 20:44:00,
2013-09-19 16:49:00,69.5,58.8,30.10,WSW,246,0.0,0.0,69,0.00,,CLR,0.00,VWS V14.01,2013-09-19 20:49:00,
2013-09-19 16:54:00,68.9,58.1,30.10,WSW,246,0.0,0.0,68,0.00,,CLR,0.00,VWS V14.01,2013-09-19 20:54:00,
2013-09-19 16:59:00,68.5,57.4,30.10,WSW,246,0.0,0.0,68,0.00,,CLR,0.00,VWS V14.01,2013-09-19 20:59:00,
2013-09-19 17:05:00,68.3,58.7,30.10,WSW,246,0.0,0.0,72,0.00,,CLR,0.00,VWS V14.01,2013-09-19 21:05:00,
2013-09-19 17:10:00,68.0,59.2,30.10,WSW,246,0.0,0.0,74,0.00,,CLR,0.00,VWS V14.01,2013-09-19 21:10:00,
2013-09-19 17:15:00,67.7,58.8,30.10,WSW,246,0.0,0.0,73,0.00,,CLR,0.00,VWS V14.01,2013-09-19 21:15:00,
2013-09-19 17:20:00,67.4,59.0,30.10,WSW,246,0.0,0.0,74,0.00,,CLR,0.00,VWS V14.01,2013-09-19 21:20:00,
2013-09-19 17:25:00,67.2,59.3,30.10,WSW,246,0.0,0.0,76,0.00,,CLR,0.00,VWS V14.01,2013-09-19 21:25:00,
2013-09-19 17:30:00,66.8,58.6,30.10,WSW,246,0.0,0.0,75,0.00,,CLR,0.00,VWS V14.01,2013-09-19 21:30:00,
2013-09-19 17:35:00,66.6,58.8,30.10,WSW,246,0.0,0.0,76,0.00,,CLR,0.00,VWS V14.01,2013-09-19 21:35:00,
2013-09-19 17:40:00,66.3,58.8,30.10,WSW,246,0.0,0.0,77,0.00,,CLR,0.00,VWS V14.01,2013-09-19 21:40:00,
2013-09-19 17:45:00,66.0,58.5,30.10,WSW,246,0.0,0.0,77,0.00,,CLR,0.00,VWS V14.01,2013-09-19 21:45:00,
2013-09-19 17:50:00,65.6,58.1,30.09,WSW,246,0.0,0.0,77,0.00,,CLR,0.00,VWS V14.01,2013-09-19 21:50:00,
2013-09-19 17:55:00,65.3,57.6,30.10,WSW,246,0.0,0.0,76,0.00,,CLR,0.00,VWS V14.01,2013-09-19 21:55:00,
2013-09-19 18:00:00,65.0,57.6,30.10,WSW,246,0.0,0.0,77,0.00,,CLR,0.00,VWS V14.01,2013-09-19 22:00:00,
2013-09-19 18:05:00,64.8,57.6,30.10,WSW,246,0.0,0.0,78,0.00,,CLR,0.00,VWS V14.01,2013-09-19 22:05:00,
2013-09-19 18:10:00,64.5,57.4,30.10,WSW,246,0.0,0.0,78,0.00,,CLR,0.00,VWS V14.01,2013-09-19 22:10:00,
2013-09-19 18:15:00,64.2,57.4,30.10,WSW,246,0.0,0.0,79,0.00,,CLR,0.00,VWS V14.01,2013-09-19 22:15:00,
2013-09-19 18:20:00,63.8,57.1,30.10,WSW,246,0.0,0.0,79,0.00,,CLR,0.00,VWS V14.01,2013-09-19 22:20:00,
2013-09-19 18:25:00,63.5,57.0,30.10,WSW,246,0.0,0.0,80,0.00,,CLR,0.00,VWS V14.01,2013-09-19 22:25:00,
2013-09-19 18:30:00,63.2,57.0,30.10,WSW,246,0.0,0.0,80,0.00,,CLR,0.00,VWS V14.01,2013-09-19 22:30:00,
2013-09-19 18:35:00,62.8,56.8,30.11,WSW,246,0.0,0.0,81,0.00,,CLR,0.00,VWS V14.01,2013-09-19 22:35:00,
2013-09-19 18:40:00,62.4,56.8,30.11,WSW,246,0.0,0.0,82,0.00,,CLR,0.00,VWS V14.01,2013-09-19 22:40:00,
2013-09-19 18:45:00,62.0,56.7,30.11,WSW,246,0.0,0.0,83,0.00,,CLR,0.00,VWS V14.01,2013-09-19 22:45:00,
2013-09-19 18:50:00,61.6,56.8,30.11,WSW,246,0.0,0.0,84,0.00,,CLR,0.00,VWS V14.01,2013-09-19 22:50:00,
2013-09-19 18:55:00,61.2,56.6,30.11,WSW,246,0.0,0.0,85,0.00,,CLR,0.00,VWS V14.01,2013-09-19 22:55:00,
2013-09-19 19:00:00,60.7,56.4,30.11,WSW,246,0.0,0.0,86,0.00,,CLR,0.00,VWS V14.01,2013-09-19 23:00:00,
2013-09-19 19:05:00,60.3,56.4,30.11,WSW,246,0.0,0.0,87,0.00,,CLR,0.00,VWS V14.01,2013-09-19 23:05:00,
2013-09-19 19:11:00,59.8,56.3,30.11,WSW,246,0.0,0.0,88,0.00,,CLR,0.00,VWS V14.01,2013-09-19 23:11:00,
2013-09-19 19:16:00,59.4,56.3,30.11,WSW,246,0.0,0.0,89,0.00,,CLR,0.00,VWS V14.01,2013-09-19 23:16:00,
2013-09-19 19:21:00,59.0,56.1,30.11,WSW,246,0.0,0.0,90,0.00,,CLR,0.00,VWS V14.01,2013-09-19 23:21:00,
2013-09-19 19:26:00,58.7,55.9,30.11,WSW,246,0.0,0.0,90,0.00,,CLR,0.00,VWS V14.01,2013-09-19 23:26:00,
2013-09-19 19:31:00,58.3,55.5,30.11,WSW,246,0.0,0.0,90,0.00,,CLR,0.00,VWS V14.01,2013-09-19 23:31:00,
2013-09-19 19:36:00,58.0,55.4,30.10,WSW,246,0.0,0.0,91,0.00,,CLR,0.00,VWS V14.01,2013-09-19 23:36:00,
2013-09-19 19:41:00,57.8,55.3,30.11,WSW,246,0.0,0.0,91,0.00,,CLR,0.00,VWS V14.01,2013-09-19 23:41:00,
2013-09-19 19:46:00,57.5,55.0,30.12,WSW,246,0.0,0.0,91,0.00,,CLR,0.00,VWS V14.01,2013-09-19 23:46:00,
2013-09-19 19:51:00,57.3,54.9,30.12,WSW,246,0.0,0.0,92,0.00,,CLR,0.00,VWS V14.01,2013-09-19 23:51:00,
2013-09-19 19:56:00,57.0,54.7,30.12,WSW,246,0.0,0.0,92,0.00,,CLR,0.00,VWS V14.01,2013-09-19 23:56:00,
2013-09-19 20:01:00,56.9,54.6,30.12,WSW,246,0.0,0.0,92,0.00,,CLR,0.00,VWS V14.01,2013-09-20 00:01:00,
2013-09-19 20:06:00,56.7,54.5,30.12,WSW,246,0.0,0.0,92,0.00,,CLR,0.00,VWS V14.01,2013-09-20 00:06:00,
2013-09-19 20:11:00,56.5,54.4,30.12,WSW,246,0.0,0.0,93,0.00,,CLR,0.00,VWS V14.01,2013-09-20 00:11:00,
2013-09-19 20:16:00,56.3,54.3,30.12,WSW,246,0.0,0.0,93,0.00,,CLR,0.00,VWS V14.01,2013-09-20 00:16:00,
2013-09-19 20:21:00,56.1,54.1,30.13,WSW,246,0.0,0.0,93,0.00,,CLR,0.00,VWS V14.01,2013-09-20 00:21:00,
2013-09-19 20:26:00,55.9,54.0,30.13,WSW,246,0.0,0.0,93,0.00,,CLR,0.00,VWS V14.01,2013-09-20 00:26:00,
2013-09-19 20:31:00,55.7,53.9,30.13,WSW,246,0.0,0.0,94,0.00,,CLR,0.00,VWS V14.01,2013-09-20 00:31:00,
2013-09-19 20:36:00,55.5,53.7,30.13,WSW,246,0.0,0.0,94,0.00,,CLR,0.00,VWS V14.01,2013-09-20 00:36:00,
2013-09-19 20:41:00,55.3,53.5,30.13,WSW,246,0.0,0.0,94,0.00,,CLR,0.00,VWS V14.01,2013-09-20 00:41:00,
2013-09-19 20:46:00,55.2,53.5,30.13,WSW,246,0.0,0.0,94,0.00,,CLR,0.00,VWS V14.01,2013-09-20 00:46:00,
2013-09-19 20:51:00,55.0,53.4,30.13,WSW,246,0.0,0.0,94,0.00,,CLR,0.00,VWS V14.01,2013-09-20 00:51:00,
2013-09-19 20:56:00,54.8,53.2,30.13,WSW,246,0.0,0.0,94,0.00,,CLR,0.00,VWS V14.01,2013-09-20 00:56:00,
2013-09-19 21:02:00,54.6,53.1,30.13,WSW,246,0.0,0.0,94,0.00,,CLR,0.00,VWS V14.01,2013-09-20 01:02:00,
2013-09-19 21:07:00,54.5,53.0,30.13,WSW,246,0.0,0.0,95,0.00,,CLR,0.00,VWS V14.01,2013-09-20 01:07:00,
2013-09-19 21:12:00,54.4,52.9,30.13,WSW,246,0.0,0.0,95,0.00,,CLR,0.00,VWS V14.01,2013-09-20 01:12:00,
2013-09-19 21:17:00,54.2,52.8,30.13,WSW,246,0.0,0.0,95,0.00,,CLR,0.00,VWS V14.01,2013-09-20 01:17:00,
2013-09-19 21:22:00,54.1,52.7,30.13,WSW,246,0.0,0.0,95,0.00,,CLR,0.00,VWS V14.01,2013-09-20 01:22:00,
2013-09-19 21:27:00,54.0,52.7,30.13,WSW,246,0.0,0.0,95,0.00,,CLR,0.00,VWS V14.01,2013-09-20 01:27:00,
2013-09-19 21:32:00,53.8,52.5,30.13,WSW,246,0.0,0.0,95,0.00,,CLR,0.00,VWS V14.01,2013-09-20 01:32:00,
2013-09-19 21:37:00,53.7,52.5,30.13,WSW,246,0.0,0.0,96,0.00,,CLR,0.00,VWS V14.01,2013-09-20 01:37:00,
2013-09-19 21:42:00,53.6,52.4,30.13,WSW,246,0.0,0.0,96,0.00,,CLR,0.00,VWS V14.01,2013-09-20 01:42:00,
2013-09-19 21:47:00,53.5,52.3,30.13,WSW,246,0.0,0.0,96,0.00,,CLR,0.00,VWS V14.01,2013-09-20 01:47:00,
2013-09-19 21:52:00,53.3,52.2,30.13,WSW,246,0.0,0.0,96,0.00,,CLR,0.00,VWS V14.01,2013-09-20 01:52:00,
2013-09-19 21:57:00,53.3,52.2,30.13,WSW,246,0.0,0.0,96,0.00,,CLR,0.00,VWS V14.01,2013-09-20 01:57:00,
2013-09-19 22:02:00,53.1,52.0,30.13,WSW,246,0.0,0.0,96,0.00,,CLR,0.00,VWS V14.01,2013-09-20 02:02:00,
2013-09-19 22:07:00,53.1,52.1,30.13,WSW,246,0.0,0.0,96,0.00,,CLR,0.00,VWS V14.01,2013-09-20 02:07:00,
2013-09-19 22:12:00,53.0,52.0,30.12,WSW,246,0.0,0.0,96,0.00,,CLR,0.00,VWS V14.01,2013-09-20 02:12:00,
2013-09-19 22:17:00,52.8,51.8,30.13,WSW,246,0.0,0.0,96,0.00,,CLR,0.00,VWS V14.01,2013-09-20 02:17:00,
2013-09-19 22:22:00,52.8,51.9,30.13,WSW,246,0.0,0.0,97,0.00,,CLR,0.00,VWS V14.01,2013-09-20 02:22:00,
2013-09-19 22:28:00,52.7,51.8,30.12,WSW,246,0.0,0.0,97,0.00,,CLR,0.00,VWS V14.01,2013-09-20 02:28:00,
2013-09-19 22:33:00,52.5,51.7,30.12,WSW,246,0.0,0.0,97,0.00,,CLR,0.00,VWS V14.01,2013-09-20 02:33:00,
2013-09-19 22:38:00,52.4,51.5,30.11,WSW,246,0.0,0.0,97,0.00,,CLR,0.00,VWS V14.01,2013-09-20 02:38:00,
2013-09-19 22:43:00,52.3,51.5,30.12,WSW,246,0.0,0.0,97,0.00,,CLR,0.00,VWS V14.01,2013-09-20 02:43:00,
2013-09-19 22:48:00,52.3,51.5,30.11,WSW,246,0.0,0.0,97,0.00,,CLR,0.00,VWS V14.01,2013-09-20 02:48:00,
2013-09-19 22:59:00,52.1,51.4,30.12,WSW,246,0.0,0.0,97,0.00,,CLR,0.00,VWS V14.01,2013-09-20 02:59:00,
2013-09-19 23:04:00,52.0,51.3,30.12,WSW,246,0.0,0.0,97,0.00,,CLR,0.00,VWS V14.01,2013-09-20 03:04:00,
2013-09-19 23:09:00,51.9,51.2,30.12,WSW,246,0.0,0.0,98,0.00,,CLR,0.00,VWS V14.01,2013-09-20 03:09:00,
2013-09-19 23:14:00,51.8,51.2,30.11,WSW,246,0.0,0.0,98,0.00,,CLR,0.00,VWS V14.01,2013-09-20 03:14:00,
2013-09-19 23:20:00,51.7,51.0,30.12,WSW,246,0.0,0.0,98,0.00,,CLR,0.00,VWS V14.01,2013-09-20 03:20:00,
2013-09-19 23:25:00,51.5,50.9,30.11,WSW,246,0.0,0.0,98,0.00,,CLR,0.00,VWS V14.01,2013-09-20 03:25:00,
2013-09-19 23:30:00,51.4,50.8,30.11,WSW,246,0.0,0.0,98,0.00,,CLR,0.00,VWS V14.01,2013-09-20 03:30:00,
2013-09-19 23:35:00,51.3,50.7,30.10,WSW,246,0.0,0.0,98,0.00,,CLR,0.00,VWS V14.01,2013-09-20 03:35:00,
2013-09-19 23:40:00,51.2,50.7,30.10,WSW,246,0.0,0.0,98,0.00,,CLR,0.00,VWS V14.01,2013-09-20 03:40:00,
2013-09-19 23:46:00,51.1,50.6,30.11,WSW,246,0.0,0.0,98,0.00,,CLR,0.00,VWS V14.01,2013-09-20 03:46:00,
2013-09-19 23:51:00,50.9,50.4,30.10,WSW,246,0.0,0.0,98,0.00,,CLR,0.00,VWS V14.01,2013-09-20 03:51:00,
2013-09-19 23:56:00,50.8,50.3,30.10,WSW,246,0.0,0.0,98,0.00,,CLR,0.00,VWS V14.01,2013-09-20 03:56:00,